User: anonymous   Login
Location: Emblem
(62.4273°N, 6.4710°E)
Time: 04:24:27
(UTC+01:00)
Language:

NOAA 19 - Orbit

View from above orbital plane
View from above orbital plane
View from above satellite
View from above satellite

Ground track
Ground track

The orbit data is extracted from the following two-line orbital elements,

1 33591U 09005A   24057.77269953  .00000289  00000-0  17944-3 0  9998
2 33591  99.0634 112.3252 0013037 244.2358 115.7468 14.12935384775890
Epoch (UTC): 26 February 2024 18:32:41
Eccentricity: 0.0013037
inclination: 99.0634°
perigee height: 840 km
apogee height: 859 km
right ascension of ascending node: 112.3252°
argument of perigee: 244.2358°
revolutions per day: 14.12935384
mean anomaly at epoch: 115.7468°
orbit number at epoch: 77589

The dashed part of the orbit path shows where the satellite is in the earth's shadow,  

DLR